Location: Westfield
(50.9000°N, 0.5667°E)
Time: 00:31:30
(UTC+00:00)

Daily predictions for brighter satellites

Satellite Brightness Start Highest point End
(mag) Time Altitude Azimuth Time Altitude Azimuth Time Altitude Azimuth
CENTAUR R/B 4.5 02:05:13 27° NNE 02:05:13 27° NNE 02:09:32 10° NE
ACS3 Solar Sail 4.1 02:01:00 10° NE 02:03:45 18° ENE 02:03:45 18° ENE
ADEOS Rocket 4.4 02:33:23 10° NNE 02:38:46 38° E 02:38:46 38° E
Cosmos 2219 Rocket 4.0 02:55:06 27° E 02:55:06 27° E 02:58:45 10° NE
CZ-2D R/B 4.5 03:13:35 10° N 03:14:23 15° N 03:14:23 15° N
USA 267 3.6 03:14:16 10° ENE 03:20:18 56° SE 03:20:18 56° SE
Cosmos 1980 Rocket 4.3 03:27:56 16° N 03:27:56 16° N 03:29:31 10° NNE
H-2A R/B 3.9 03:26:23 10° NNE 03:28:05 22° NNE 03:28:05 22° NNE
USA 238 DEB 4.1 03:33:04 51° N 03:33:04 51° N 03:38:40 10° NE
Cosmos 2278 Rocket 3.8 03:29:48 25° N 03:31:47 31° NE 03:36:47 10° ESE
USA 238 4.1 03:33:10 52° N 03:33:10 52° N 03:38:45 10° NE
Cosmos 2333 Rocket 3.2 03:39:30 39° NNE 03:39:30 39° NNE 03:43:09 10° NNE
ADEOS II 4.1 03:38:34 10° N 03:39:55 18° N 03:39:55 18° N
COSMOS 2455 3.1 03:45:06 60° NNE 03:45:06 60° NNE 03:50:02 10° NE
Lacrosse 5 rocket 4.0 03:46:58 13° NE 03:46:58 13° NE 03:47:22 10° ENE
ACS3 Solar Sail 1.9 03:42:52 10° NNE 03:47:53 64° N 03:47:53 64° N
Resurs 1-4 Rocket 4.3 03:47:25 10° N 03:48:13 14° N 03:48:13 14° N
CENTAUR R/B 4.1 03:52:18 27° NNW 03:55:02 34° NNE 04:02:43 10° ENE
Cosmos 2360 Rocket 2.7 03:59:09 50° N 03:59:09 50° N 04:03:30 10° NNE
Cosmos 2322 Rocket 2.8 03:59:32 45° N 03:59:32 45° N 04:03:43 10° NNE
USA 234 3.2 03:52:26 10° SE 03:58:53 66° SSW 03:58:53 66° SSW
SL-16 R/B 3.4 04:06:02 30° N 04:06:02 30° N 04:09:33 10° NNE
Cosmos 44 Rocket 3.5 04:05:02 73° ENE 04:05:02 73° ENE 04:09:55 10° SE
Cosmos 1943 Rocket 2.9 04:06:17 27° N 04:09:04 50° NE 04:14:25 10° SE
H-2A R/B 4.5 04:08:25 10° NNE 04:11:15 40° ENE 04:11:15 40° ENE
Okean 1-7 3.7 04:13:10 49° NE 04:13:10 49° NE 04:16:28 10° NNE
ARGOS 3.1 04:09:18 10° NNE 04:14:46 87° ESE 04:16:17 49° SSW
PAYLOAD A 4.4 04:10:08 10° NNE 04:15:34 68° ESE 04:20:29 12° S
Cosmos 1140 Rocket 3.5 04:15:55 48° N 04:17:20 74° ENE 04:22:26 10° SSE
Timation 2 Rocket 4.2 04:14:48 25° NNW 04:19:03 76° ENE 04:25:30 10° SE
CZ-2C R/B 2.4 04:15:05 10° NNE 04:20:06 85° ESE 04:21:33 48° S
Cosmos 1809 Rocket 4.4 04:18:06 10° S 04:24:12 86° E 04:30:20 10° NNE
ADEOS Rocket 3.4 04:18:54 10° N 04:25:05 51° WNW 04:25:40 50° W
NOSS 3-1 (C) 3.4 04:27:25 34° S 04:29:20 58° SE 04:34:57 10° NE
Iridium 4 Rocket 4.4 04:26:50 10° N 04:30:59 39° E 04:34:55 10° SSE
SJ 16-02 3.9 04:28:05 10° N 04:31:06 18° NE 04:34:06 10° E
Cosmos 2100 Rocket 3.8 04:25:11 10° N 04:31:22 87° W 04:37:32 10° S
Cosmos 2219 Rocket 2.2 04:36:50 53° W 04:37:31 57° NW 04:43:08 10° NNE
IRS-1D 4.5 04:35:17 10° NNE 04:40:05 46° E 04:44:49 10° S
SL-24 R/B - RUBIN 2 3.8 04:39:23 56° WSW 04:40:22 72° NW 04:45:16 10° NE
TIMED 4.4 04:40:17 50° NNW 04:41:22 85° ENE 04:45:37 10° SSE
Cosmos 1707 Rocket 4.2 04:42:43 40° NNW 04:42:43 40° NNW 04:45:47 10° N
COSMOS 2428 2.8 04:41:43 10° SSW 04:47:23 75° ESE 04:53:05 10° NNE
USA 59 Rocket -0.7 04:50:47 71° ESE 04:50:47 71° ESE 04:53:39 10° NE
SL-08 RB Rocket 3.6 04:47:11 10° N 04:51:43 62° WNW 04:53:29 35° SW
Cosmos 1459 Rocket 3.9 04:46:14 10° NNW 04:52:34 70° W 04:58:51 10° S
Cosmos 1864 Rocket 4.4 04:47:12 10° N 04:53:29 87° W 04:59:49 10° S
Cosmos 2322 3.6 04:50:01 15° SSW 04:54:50 87° WNW 05:00:34 10° NNE
FengYun 1-2 T 4.3 04:51:07 10° NNE 04:56:42 81° ESE 05:02:18 10° SSW
CZ-2D R/B 4.3 04:55:27 10° NNW 04:55:38 10° NNW 04:55:38 10° NNW
Cosmos 407 Rocket 3.4 04:54:46 14° NNW 04:59:18 87° ENE 05:04:24 10° SSE
COSMO-SKYMED 1 3.0 04:55:24 10° SSE 04:59:27 60° ENE 05:03:32 10° N
Meteor 2-21 4.3 04:53:47 10° SSW 04:59:52 73° WNW 05:05:57 10° N
SKYMED 2 3.6 04:56:24 10° SSE 05:00:45 84° ENE 05:05:07 10° NNW
Cosmos 1727 Rocket 4.0 04:56:27 10° SSW 05:02:28 53° WNW 05:08:35 10° N
Cosmos 1725 Rocket 3.9 04:56:41 10° NNW 05:03:02 82° W 05:09:21 10° S
Cosmos 2228 Rocket 3.3 05:03:28 42° WNW 05:03:35 42° WNW 05:07:48 10° N
USA 267 3.3 04:57:22 10° ENE 05:03:52 70° NNW 05:07:39 27° W
H-2A R/B 3.7 05:06:44 10° NNW 05:08:34 16° NNW 05:08:34 16° NNW
Cosmos 1802 Rocket 4.0 05:04:34 10° NNW 05:10:55 67° W 05:17:08 10° S
Cosmos 1269 Rocket 4.4 05:09:27 29° WNW 05:11:20 39° WSW 05:16:10 10° S
Cosmos 1980 Rocket 4.4 05:10:29 10° NNW 05:11:20 10° NNW 05:12:11 10° N
NOSS 3-1 (A) 3.7 05:08:55 10° SSW 05:13:30 53° SE 05:19:04 10° NE
Cosmos 2233 Rocket 4.0 05:07:54 10° N 05:14:16 86° E 05:20:33 10° S
Cosmos 2278 Rocket 2.2 05:11:40 15° NW 05:16:16 62° WSW 05:21:49 10° SSE
Cosmos 1328 3.5 05:13:04 10° SSW 05:16:39 56° WNW 05:20:15 10° N
Cosmos 1703 Rocket 3.4 05:13:43 10° SSW 05:18:03 70° WNW 05:22:27 10° N
Cosmos 2251 Rocket 3.8 05:12:45 10° NNW 05:18:07 73° ENE 05:23:29 10° SSE
CZ-3 R/B 4.4 05:17:36 10° SSW 05:19:54 11° S 05:21:48 10° S
NOSS 2-1 (E) 2.6 05:18:52 28° SW 05:20:30 80° NW 05:23:34 10° NE
Cosmos 1939 Rocket 3.1 05:17:21 10° N 05:21:00 41° WNW 05:23:41 16° SW
Lacrosse 5 rocket 2.0 05:20:39 27° NNW 05:21:25 30° N 05:24:27 10° NE
Cosmos 2173 Rocket 4.3 05:16:09 10° NNW 05:21:47 41° W 05:27:24 10° SSW
ADEOS II 4.2 05:20:38 10° NNW 05:20:43 10° NNW 05:20:43 10° NNW
Meteor 2-16 Rocket 4.4 05:16:21 10° SSW 05:22:28 79° WNW 05:28:37 10° N
Cosmos 2333 Rocket 3.6 05:21:33 19° NW 05:22:46 20° NNW 05:26:59 10° NNE
USA-17 4.1 05:22:08 36° NW 05:23:18 81° SW 05:26:35 10° SE
Cosmos 2237 Rocket 2.7 05:17:53 10° SSW 05:23:28 63° ESE 05:29:04 10° NE
SL-08 R/B 4.4 05:19:04 10° NNW 05:25:08 71° W 05:31:15 10° S
BlueWalker 3 3.2 05:27:40 21° SW 05:28:11 21° SW 05:31:00 10° S
Cosmos 2292 Rocket 3.7 05:24:12 10° SSW 05:28:29 80° W 05:34:07 10° N
USA 276 4.2 05:29:39 12° SSW 05:29:39 12° SSW 05:30:27 10° S
COSMOS 2455 3.9 05:28:15 20° WNW 05:30:48 27° NNW 05:35:52 10° NNE
ACS3 Solar Sail 3.0 05:26:59 10° N 05:31:07 20° NW 05:32:02 19° WNW
Meteor 1-24 Rocket 3.7 05:27:32 10° SSW 05:33:13 58° WNW 05:38:44 10° N
Helios 1A Rocket 2.8 05:30:41 10° S 05:33:54 40° W 05:36:22 15° NW
Cosmos 2369 Rocket 3.5 05:28:39 10° NNW 05:33:54 37° NE 05:39:09 10° ESE
CZ-4 R/B 3.8 05:30:38 10° N 05:35:32 68° WNW 05:40:19 10° SSW
Cosmos 1782 Rocket 3.6 05:33:08 10° NNW 05:37:28 57° W 05:41:45 10° S
USA 234 4.5 05:37:57 10° S 05:42:50 22° SW 05:46:14 15° W
Cosmos 2360 Rocket 3.7 05:40:55 16° WNW 05:42:57 19° NNW 05:46:57 10° NNE
Cosmos 2322 Rocket 3.7 05:41:20 15° WNW 05:43:20 18° NNW 05:47:09 10° N
Cosmos 2123 Rocket 4.2 05:38:00 10° SSW 05:43:59 48° WNW 05:49:59 10° N
Meteor 2-5 Rocket 3.9 05:38:38 10° SSW 05:44:25 54° WNW 05:50:10 10° N
NOAA 12 4.1 05:39:30 10° N 05:44:48 67° WNW 05:50:05 10° SSW
Cosmos 1420 Rocket 4.4 05:40:25 10° SSW 05:45:39 70° ESE 05:50:56 10° NNE
Gbstr 26 Del rocket 3.7 05:41:19 13° WSW 05:45:50 82° SSE 05:52:10 10° ENE
CENTAUR R/B 3.7 05:39:35 10° NW 05:47:18 58° NE 05:56:21 10° ESE
Okean 1-7 4.4 05:49:34 17° WNW 05:49:45 17° WNW 05:52:30 10° NNW
SL-16 R/B 4.1 05:47:54 11° NW 05:50:07 13° NNW 05:52:49 10° N
TiPS 4.2 05:48:37 11° SW 05:50:58 83° NW 05:53:16 10° NE
Cosmos 1943 Rocket 2.8 05:47:50 11° NW 05:52:35 33° WSW 05:57:25 10° SSW
Cosmos 2016 Rocket 4.4 05:47:10 10° NNW 05:53:04 41° W 05:58:56 10° SSW
ARGOS 4.4 05:50:33 10° N 05:54:20 20° NW 05:57:45 11° W
Cosmos 1812 2.4 05:53:34 10° N 05:56:30 64° ENE 05:59:24 10° SSE
CZ-2C R/B 3.8 05:54:14 10° NNW 05:57:34 18° NW 06:00:45 11° W
Cosmos 1300 Rocket 4.2 05:53:58 10° NNW 05:57:51 32° W 06:01:41 10° SSW
Cosmos 374 Rocket 4.5 05:57:53 10° WSW 06:01:40 57° NW 06:06:10 10° NE
Cosmos 2346 Rocket 4.4 05:56:28 10° SSW 06:02:38 79° W 06:08:46 10° N
NOSS 2-1 (C) 3.6 06:00:52 13° W 06:03:15 29° NW 06:05:55 10° NNE
NOSS 2-1 (D) 3.8 06:04:54 12° W 06:07:15 26° NW 06:09:50 10° NNE
SJ 16-02 1.2 06:05:26 10° NNW 06:09:44 71° WSW 06:13:59 10° SSE
Iridium 4 Rocket 4.1 06:07:03 10° NNW 06:10:29 23° W 06:13:47 10° SW
Aureole 3 Rocket 3.3 06:06:40 10° NNW 06:10:48 68° W 06:16:28 10° S
Okean 1 Rocket 4.3 06:06:54 10° N 06:11:05 43° ENE 06:15:12 10° SSE
Cosmos 2061 Rocket 4.3 06:07:42 10° NNW 06:13:29 42° W 06:19:13 10° SSW
CBERS-1 4.0 06:09:48 10° NNE 06:14:57 88° WNW 06:20:05 10° SSW
SWARM C 4.5 06:14:15 10° SSW 06:17:32 64° W 06:20:51 10° N
SWARM A 4.1 06:14:19 10° S 06:17:37 76° W 06:20:58 10° N
IRS-1D 4.2 06:14:45 10° N 06:19:03 30° WNW 06:23:17 10° WSW
Cosmos 1190 Rocket 4.4 06:14:07 10° NW 06:19:09 46° WSW 06:24:08 10° S
Cosmos 1378 Rocket 3.7 06:15:57 10° S 06:20:13 79° E 06:24:31 10° NNE
Cosmos 676 Rocket 4.0 06:14:59 10° NNW 06:20:14 70° WSW 06:25:24 10° SSE
NOSS 3-1 (C) 3.8 06:15:34 10° W 06:20:20 39° NNW 06:26:12 10° NE
Cosmos 1869 3.5 06:18:16 10° NNW 06:21:31 36° W 06:24:44 10° SSW
SL-16 R/B 3.2 06:16:13 10° S 06:21:44 54° ESE 06:27:17 10° NE
In-Cosmos 22 Rocket 4.3 06:16:52 10° SSW 06:22:41 83° WNW 06:28:33 10° NNE
Cosmos 2219 Rocket 3.7 06:19:03 10° WNW 06:22:45 17° NNW 06:26:28 10° N
Cosmos 2056 Rocket 3.6 06:21:08 10° SSW 06:26:33 89° WNW 06:31:59 10° NNE
Okean 2 Rocket 3.3 06:24:26 10° N 06:28:50 77° E 06:33:11 10° SSE
Cosmos 371 Rocket 3.5 06:25:40 10° NNW 06:30:24 54° WSW 06:35:06 10° S
NOSS 0 Rocket 4.3 06:24:48 10° WSW 06:30:36 42° NW 06:36:26 10° NNE
COSMOS 2428 3.7 06:27:22 10° W 06:32:12 28° NW 06:37:03 10° NNE
